User: anonymous
Location: Toronto
(43.6672°N, 79.4170°W)
Time: 17:35:05
(UTC-04:00)
Language:

ISS - Orbit

View from above orbital plane
View from above orbital plane
View from above satellite
View from above satellite

Ground track
Ground track

The orbit data is extracted from the following two-line orbital elements,

1 25544U 98067A   14294.48422454  .00020824  00000-0  36293-3 0  2763
2 25544 051.6464 193.5409 0002387 280.1421 066.7154 15.50692355910917
Epoch (UTC): 21 October 2014 11:37:17
Eccentricity: 0.0002387
inclination: 51.6464°
perigee height: 413 km
apogee height: 416 km
right ascension of ascending node: 193.5409°
argument of perigee: 280.1421°
revolutions per day: 15.50692355
mean anomaly at epoch: 66.7154°
orbit number at epoch: 91091

The dashed part of the orbit path shows where the satellite is in the earth's shadow,  

DLR